Weather History for Bridgeport, TX

Change the Weather History Date:

Wednesday, February 20, 2013

  Actual Average (KMWL) Record (KMWL)
Temperature  
Mean Temperature 42 °F -  
Max Temperature 46 °F 59 °F 82 °F (2005)
Min Temperature 37 °F 38 °F 30 °F (2006)
Degree Days  
Heating Degree Days 24    
Moisture  
Dew Point 36 °F    
Average Humidity 81    
Maximum Humidity 100    
Minimum Humidity 66    
Precipitation  
Precipitation 0.43 in - - ()
Sea Level Pressure  
Sea Level Pressure 30.02 in    
Wind  
Wind Speed 8 mph (East)    
Max Wind Speed 17 mph    
Max Gust Speed 25 mph    
Visibility 8 miles    
Events Rain , Thunderstorm    
Averages and records for this station are not official NWS values.
T = Trace of Precipitation, MM = Missing Value Source: NWS Daily Summary

Daily Weather History Graph

Daily Weather History Graph

Search for Another Location

Airport:

Trip Planner

Search our weather history database for the weather conditions in past years. The results will help you decide how hot, cold, wet, or windy it might be!

Date:

Astronomy

Feb. 20, 2013 Rise Set
Actual Time 7:09 AM CST 6:21 PM CST
Civil Twilight 6:44 AM CST 6:46 PM CST
Nautical Twilight 6:15 AM CST 7:15 PM CST
Astronomical Twilight 5:46 AM CST 7:43 PM CST
Moon 1:52 PM CST (2/20) 3:21 AM CST (2/20)
Length of Visible Light 12h 01m
Length of Day
11h 11m
Waxing Gibbous, 76% of the Moon is Illuminated
Feb 20
Waxing Gibbous
Feb 25
Full
Mar 4
Last Quarter
Mar 11
New
Mar 19
First Quarter

Hourly Weather History & Observations

Time (CST) Temp. Windchill Dew Point Humidity Pressure Visibility Wind Dir Wind Speed Gust Speed Precip Events Conditions
12:15 AM 46.4 °F - 39.2 °F 76% 30.19 in 10.0 mi Calm Calm - N/A Rain Rain
12:35 AM 46.4 °F 45.2 °F 35.6 °F 66% 30.19 in 10.0 mi ESE 3.5 mph - 0.01 in   Drizzle
12:55 AM 46.4 °F - 35.6 °F 66% 30.19 in 7.0 mi Calm Calm - 0.02 in Rain Rain
1:15 AM 44.6 °F - 41.0 °F 87% 30.18 in 5.0 mi Calm Calm - 0.03 in Rain Rain
1:35 AM 44.6 °F 42.2 °F 41.0 °F 87% 30.17 in 7.0 mi NE 4.6 mph - 0.07 in Rain Rain
1:55 AM 42.8 °F 41.1 °F 41.0 °F 93% 30.18 in 10.0 mi ENE 3.5 mph - 0.09 in Rain Rain
2:15 AM 42.8 °F 38.6 °F 39.2 °F 87% 30.16 in 10.0 mi ENE 6.9 mph - 0.01 in Rain Rain
2:35 AM 42.8 °F 38.6 °F 39.2 °F 87% 30.16 in 10.0 mi East 6.9 mph - 0.02 in Rain Light Rain
2:55 AM 42.8 °F 38.6 °F 39.2 °F 87% 30.15 in 10.0 mi East 6.9 mph - 0.02 in Rain Light Rain
3:15 AM 42.8 °F 41.1 °F 39.2 °F 87% 30.22 in 7.0 mi SSE 3.5 mph - 0.02 in Rain Rain
3:35 AM 42.8 °F 38.6 °F 39.2 °F 87% 30.18 in 4.0 mi East 6.9 mph - 0.10 in Rain Rain
3:55 AM 42.8 °F 37.0 °F 41.0 °F 93% 30.16 in 10.0 mi ESE 10.4 mph - 0.14 in Rain Rain
4:15 AM 42.8 °F 37.5 °F 41.0 °F 93% 30.12 in 7.0 mi East 9.2 mph - 0.05 in Rain Light Rain
4:35 AM 41.0 °F 33.5 °F 41.0 °F 100% 30.08 in 7.0 mi East 13.8 mph 17.3 mph 0.08 in Rain Light Rain
4:55 AM 41.0 °F 35.8 °F 39.2 °F 93% 30.10 in 10.0 mi East 8.1 mph - 0.09 in   Drizzle
5:15 AM 41.0 °F 35.8 °F 37.4 °F 87% 30.07 in 10.0 mi East 8.1 mph 17.3 mph N/A   Light Drizzle
5:35 AM 41.0 °F 35.8 °F 37.4 °F 87% 30.07 in 10.0 mi East 8.1 mph - N/A   Overcast
6:15 AM 41.0 °F 35.2 °F 37.4 °F 87% 30.09 in 10.0 mi East 9.2 mph - N/A   Light Drizzle
6:35 AM 42.8 °F 39.3 °F 37.4 °F 81% 30.14 in 10.0 mi NNE 5.8 mph - N/A   Overcast
6:55 AM 42.8 °F 38.0 °F 37.4 °F 81% 30.16 in 10.0 mi NNE 8.1 mph - N/A   Light Drizzle
7:35 AM 41.0 °F 34.3 °F 35.6 °F 81% 30.14 in 10.0 mi ENE 11.5 mph 23.0 mph 0.02 in Rain , Thunderstorm Light Thunderstorms and Rain
7:55 AM 41.0 °F 35.8 °F 37.4 °F 87% 30.14 in 10.0 mi ENE 8.1 mph - 0.03 in Rain , Thunderstorm Thunderstorms and Rain
8:15 AM 41.0 °F 35.8 °F 37.4 °F 87% 30.14 in 10.0 mi East 8.1 mph - N/A   Overcast
8:35 AM 41.0 °F 35.2 °F 37.4 °F 87% 30.13 in 10.0 mi East 9.2 mph - N/A   Overcast
8:55 AM 41.0 °F 33.5 °F 37.4 °F 87% 30.14 in 10.0 mi East 13.8 mph 19.6 mph N/A   Overcast
9:15 AM 41.0 °F 33.5 °F 37.4 °F 87% 30.14 in 10.0 mi East 13.8 mph 19.6 mph N/A   Overcast
9:35 AM 41.0 °F 34.3 °F 37.4 °F 87% 30.12 in 10.0 mi East 11.5 mph 20.7 mph N/A   Overcast
9:55 AM 42.8 °F 35.4 °F 37.4 °F 81% 30.11 in 10.0 mi East 15.0 mph 21.9 mph N/A   Overcast
10:15 AM 42.8 °F 35.4 °F 35.6 °F 76% 30.09 in 10.0 mi East 15.0 mph 25.3 mph N/A   Overcast
10:55 AM 42.8 °F 35.4 °F 35.6 °F 76% 30.08 in 10.0 mi East 15.0 mph - N/A   Overcast
11:15 AM 42.8 °F 35.4 °F 37.4 °F 81% 30.08 in 10.0 mi ESE 15.0 mph 20.7 mph N/A   Overcast
11:35 AM 42.8 °F 35.8 °F 37.4 °F 81% 30.08 in 7.0 mi ESE 13.8 mph 18.4 mph N/A   Light Drizzle
11:55 AM 42.8 °F 37.5 °F 37.4 °F 81% 30.08 in 10.0 mi ESE 9.2 mph 17.3 mph N/A   Overcast
12:15 PM 42.8 °F 37.5 °F 37.4 °F 81% 30.07 in 10.0 mi ESE 9.2 mph - N/A   Overcast
12:55 PM 44.6 °F 40.2 °F 37.4 °F 76% 30.03 in 10.0 mi ESE 8.1 mph 18.4 mph N/A   Overcast
1:15 PM 44.6 °F 38.8 °F 35.6 °F 71% 30.02 in 10.0 mi ESE 11.5 mph 18.4 mph N/A   Overcast
1:35 PM 44.6 °F 37.8 °F 35.6 °F 71% 30.02 in 10.0 mi ESE 15.0 mph 19.6 mph N/A   Overcast
2:15 PM 42.8 °F 35.8 °F 35.6 °F 76% 30.00 in 10.0 mi ESE 13.8 mph - N/A   Overcast
2:55 PM - - - N/A% - - North - - N/A   Unknown
3:15 PM 42.8 °F 36.2 °F 35.6 °F 76% 29.96 in 5.0 mi East 12.7 mph 18.4 mph 0.04 in   Overcast
3:35 PM 42.8 °F 35.8 °F 35.6 °F 76% 29.94 in 5.0 mi East 13.8 mph 23.0 mph 0.04 in   Haze
3:55 PM 42.8 °F 34.8 °F 33.8 °F 70% 29.93 in 7.0 mi ESE 17.3 mph 24.2 mph 0.04 in   Overcast
4:15 PM 42.8 °F 35.4 °F 33.8 °F 70% 29.93 in 5.0 mi ESE 15.0 mph 20.7 mph N/A   Haze
4:35 PM 42.8 °F 35.4 °F 33.8 °F 70% 29.92 in 5.0 mi East 15.0 mph 24.2 mph N/A   Haze
4:55 PM 42.8 °F 35.4 °F 33.8 °F 70% 29.91 in 5.0 mi East 15.0 mph 20.7 mph N/A   Haze
5:15 PM 42.8 °F 35.4 °F 33.8 °F 70% 29.90 in 5.0 mi ESE 15.0 mph 20.7 mph N/A   Haze
5:35 PM 42.8 °F 35.8 °F 33.8 °F 70% 29.91 in 7.0 mi ESE 13.8 mph 20.7 mph N/A   Overcast
5:55 PM 42.8 °F 37.5 °F 33.8 °F 70% 29.91 in 5.0 mi ESE 9.2 mph 20.7 mph N/A   Haze
6:15 PM 42.8 °F 35.8 °F 33.8 °F 70% 29.90 in 7.0 mi East 13.8 mph 19.6 mph N/A   Overcast
6:35 PM 42.8 °F 37.0 °F 33.8 °F 70% 29.90 in 7.0 mi East 10.4 mph 16.1 mph N/A   Overcast
6:55 PM 41.0 °F 33.9 °F 33.8 °F 76% 29.90 in 7.0 mi ESE 12.7 mph 17.3 mph N/A   Overcast
7:15 PM 41.0 °F 35.2 °F 33.8 °F 76% 29.90 in 7.0 mi East 9.2 mph 19.6 mph N/A   Overcast
7:35 PM 41.0 °F 34.3 °F 35.6 °F 81% 29.90 in 7.0 mi East 11.5 mph - N/A   Overcast
7:55 PM 41.0 °F 33.9 °F 35.6 °F 81% 29.89 in 7.0 mi East 12.7 mph 23.0 mph N/A   Overcast
8:15 PM 41.0 °F 33.9 °F 33.8 °F 76% 29.87 in 7.0 mi East 12.7 mph 19.6 mph N/A   Overcast
8:35 PM 41.0 °F 32.8 °F 33.8 °F 76% 29.87 in 7.0 mi East 16.1 mph 23.0 mph N/A   Overcast
8:55 PM 39.2 °F 30.5 °F 33.8 °F 81% 29.86 in 7.0 mi East 16.1 mph 21.9 mph N/A   Overcast
9:15 PM 39.2 °F 30.8 °F 33.8 °F 81% 29.85 in 7.0 mi East 15.0 mph 19.6 mph N/A   Overcast
9:35 PM 39.2 °F 32.0 °F 33.8 °F 81% 29.85 in 7.0 mi East 11.5 mph 21.9 mph N/A   Overcast
9:55 PM 39.2 °F 31.2 °F 33.8 °F 81% 29.85 in 7.0 mi East 13.8 mph 21.9 mph N/A   Overcast
10:15 PM 39.2 °F 31.2 °F 33.8 °F 81% 29.85 in 7.0 mi East 13.8 mph 19.6 mph N/A   Overcast
10:35 PM 39.2 °F 30.8 °F 33.8 °F 81% 29.83 in 7.0 mi East 15.0 mph 23.0 mph N/A   Overcast
10:55 PM 37.4 °F 29.8 °F 33.8 °F 87% 29.82 in 7.0 mi East 11.5 mph 20.7 mph N/A   Overcast
11:15 PM 37.4 °F 29.8 °F 33.8 °F 87% 29.80 in 7.0 mi East 11.5 mph 19.6 mph N/A   Overcast
11:35 PM 37.4 °F 28.9 °F 33.8 °F 87% 29.79 in 7.0 mi East 13.8 mph 20.7 mph N/A   Overcast
11:55 PM 37.4 °F 29.3 °F 33.8 °F 87% 29.78 in 7.0 mi East 12.7 mph 19.6 mph N/A   Overcast